Terminal Aerodrome Forecast
Issued by NWS

Home | Current Version | Previous Version | Text Only | Print | Product List | Glossary Off
Versions: 1 2 3 4 5 6 7 8 9 10 11 12 13 14 15 16 17 18

000
FTUS43 KOAX 270705 AAA
TAFCDR
TAF AMD
KCDR 270705Z 2707/2806 15008KT P6SM VCTS BKN050CB
     FM271900 21010G20KT P6SM -SHRA VCTS BKN050CB
     FM280100 19009KT P6SM BKN050=

USA.gov is the U.S. government's official web portal to all federal, state and local government web resources and services.